This demonstration page uses our WeatherBlox Daily Observations layout. Learn more.

Left ArrowRight Arrow

36.19886, -115.1175

Hourly Observations for May 8, 2020

Temp ( °F °C ) Dew Point ( °F °C ) Humidity (%) Winds ( mph kmh ) Pressure ( in mb ) Visibility ( mi km ) Precip ( " mm )
12:53 am 00:53 Clear 77 25 20 -6.7 12 12 SSW 8 13 29.93 1014 10 16 N/A
1:53 am 01:53 Clear 75 23.9 21 -6.1 13 13 SSW 8 13 29.93 1014 10 16 N/A
2:53 am 02:53 Clear 74 23.3 19 -7.2 12 12 SSW 8 13 29.94 1014 10 16 N/A
3:53 am 03:53 Clear 73 22.8 15 -9.4 11 11 SSW 6 9 29.95 1014 10 16 N/A
4:53 am 04:53 Clear 71 21.7 15 -9.4 12 12 SSW 6 9 29.97 1015 10 16 N/A
5:53 am 05:53 Sunny 69 20.6 18 -7.8 14 14 NNW 7 11 29.98 1015 10 16 N/A
6:53 am 06:53 Sunny 72 22.2 19 -7.2 13 13 WSW 6 9 30.00 1016 10 16 N/A
7:53 am 07:53 Sunny 73 22.8 16 -8.9 11 11 WSW 6 9 30.01 1016 10 16 N/A
8:53 am 08:53 Sunny 76 24.4 18 -7.8 11 11 N N/A 30.02 1017 10 16 N/A
9:53 am 09:53 Sunny 79 26.1 17 -8.3 10 10 N N/A 30.01 1016 10 16 N/A
10:53 am 10:53 Sunny 83 28.3 13 -10.6 7 7 undefined N/A 30.00 1016 10 16 N/A
11:53 am 11:53 Sunny 85 29.4 12 -11.1 6 6 SW 5 7 29.98 1015 10 16 N/A
12:53 pm 12:53 Sunny 88 31.1 12 -11.1 6 6 VRB 5 7 29.95 1014 10 16 N/A
1:53 pm 13:53 Sunny 89 31.7 12 -11.1 5 5 ESE 6 9 29.93 1014 10 16 N/A
2:53 pm 14:53 Sunny 91 32.8 13 -10.6 5 5 N N/A 29.90 1012 10 16 N/A
3:53 pm 15:53 Sunny 92 33.3 15 -9.4 6 6 VRB 3 6 29.85 1011 10 16 N/A
4:53 pm 16:53 Sunny 94 34.4 15 -9.4 5 5 E 7 11 29.83 1010 10 16 N/A
5:53 pm 17:53 Sunny 94 34.4 15 -9.4 5 5 VRB 3 6 29.82 1010 10 16 N/A
6:53 pm 18:53 Sunny 94 34.4 15 -9.4 5 5 NNE 3 6 29.81 1010 10 16 N/A
7:53 pm 19:53 Clear 89 31.7 16 -8.9 7 7 E 6 9 29.82 1010 10 16 N/A
8:53 pm 20:53 Clear 89 31.7 17 -8.3 7 7 N N/A 29.83 1010 10 16 N/A
9:53 pm 21:53 Clear 81 27.2 27 -2.8 14 14 NW 7 11 29.85 1011 10 16 N/A
10:53 pm 22:53 Clear 81 27.2 27 -2.8 14 14 WNW 6 9 29.85 1011 10 16 N/A
11:53 pm 23:53 Clear 77 25 26 -3.3 15 15 WNW 6 9 29.85 1011 10 16 N/A

Powered by AerisWeather